This is the latest recevied weather packets stored in our database for station/object VU3BOP-13. If no packets are shown the sender has not sent any weather packets the latest 10 day(s).
| Time | Temp. | Humidity | Pressure | Rain* | Wind** | Luminosity | Snow |
|---|---|---|---|---|---|---|---|
| 1788403326 | 25.56° C | 70% | 911.5 hPa | - | - | - | - |
| 1788402726 | 25.56° C | 70% | 911.5 hPa | - | - | - | - |
| 1788400926 | 25.56° C | 70% | 910.9 hPa | - | - | - | - |
| 1788381126 | 25.56° C | 64% | 910.3 hPa | - | - | - | - |
| 1788380526 | 26.11° C | 64% | 910.4 hPa | - | - | - | - |
| 1788377525 | 26.67° C | 64% | 910.8 hPa | - | - | - | - |
| 1788376925 | 27.22° C | 64% | 910.8 hPa | - | - | - | - |
| 1788376325 | 27.78° C | 66% | 910.8 hPa | - | - | - | - |
| 1788373925 | 27.22° C | 71% | 911.4 hPa | - | - | - | - |
| 1788373325 | 27.78° C | 72% | 911.6 hPa | - | - | - | - |
| 1788372725 | 27.78° C | 69% | 911.8 hPa | - | - | - | - |
| 1788370325 | 27.78° C | 65% | 912 hPa | - | - | - | - |
| 1788366125 | 27.78° C | 63% | 912.1 hPa | - | - | - | - |
| 1788359524 | 27.78° C | 63% | 910.9 hPa | - | - | - | - |
| 1788358924 | 27.78° C | 62% | 910.8 hPa | - | - | - | - |
| 1788358324 | 27.78° C | 61% | 910.7 hPa | - | - | - | - |
| 1788355924 | 27.78° C | 60% | 910.1 hPa | - | - | - | - |
| 1788355324 | 27.78° C | 62% | 909.6 hPa | - | - | - | - |
| 1788354724 | 27.78° C | 61% | 909.4 hPa | - | - | - | - |
| 1788354124 | 27.78° C | 64% | 909.3 hPa | - | - | - | - |
| 1788353886 | 27.78° C | 66% | 909.2 hPa | - | - | - | - |
| 1788352686 | 25.56° C | 61% | 908.9 hPa | - | - | - | - |
| 1788352086 | 27.22° C | 65% | 908.8 hPa | - | - | - | - |
| 1788351486 | 27.22° C | 62% | 908.7 hPa | - | - | - | - |
| 1788350286 | 27.78° C | 61% | 908.5 hPa | - | - | - | - |
* Rain since midnight (hover to see other rain measurements)
** Current wind speed in m/s (hover to see current wind gust speed)